| time (UTC) | temp F | wind direction | speed MPH | gust MPH | rain 1hr in | rain 24hr in | rain mn in | humidity % | barometer mb |
| 20260507150040 | 67 | 259 | 3.0 | 14.0 | 0.00 | 0.00 | 0.00 | 50 | 1003.4 |
| 20260507144536 | 68 | 214 | 6.0 | 16.0 | 0.00 | 0.00 | 0.00 | 49 | 1003.3 |
| 20260507143037 | 68 | 224 | 2.0 | 7.0 | 0.00 | 0.00 | 0.00 | 48 | 1003.6 |
| 20260507141533 | 68 | 287 | 4.0 | 12.0 | 0.00 | 0.00 | 0.00 | 47 | 1003.7 |
| 20260507140032 | 67 | 257 | 3.0 | 10.0 | 0.00 | 0.00 | 0.00 | 46 | 1003.8 |
| 20260507134516 | 67 | 193 | 2.0 | 9.0 | 0.00 | 0.00 | 0.00 | 46 | 1003.9 |
| 20260507133018 | 65 | 247 | 2.0 | 9.0 | 0.00 | 0.00 | 0.00 | 51 | 1003.9 |
| 20260507131519 | 66 | 265 | 2.0 | 8.0 | 0.00 | 0.00 | 0.00 | 47 | 1003.9 |
| 20260507130027 | 68 | 148 | 4.0 | 11.0 | 0.00 | 0.00 | 0.00 | 44 | 1004.0 |
| 20260507124520 | 68 | 276 | 4.0 | 11.0 | 0.00 | 0.00 | 0.00 | 45 | 1004.1 |
| 20260507123013 | 67 | 236 | 2.0 | 12.0 | 0.00 | 0.00 | 0.00 | 45 | 1004.2 |
| 20260507121511 | 67 | 298 | 3.0 | 10.0 | 0.00 | 0.00 | 0.00 | 43 | 1004.5 |
| 20260507120011 | 67 | 204 | 0.0 | 5.0 | 0.00 | 0.00 | 0.00 | 48 | 1004.8 |
| 20260507114502 | 65 | 221 | 0.0 | 6.0 | 0.00 | 0.00 | 0.00 | 52 | 1005.1 |
| 20260507113102 | 64 | 77 | 0.0 | 6.0 | 0.00 | 0.00 | 0.00 | 53 | 1005.2 |
| 20260507111559 | 63 | 100 | 3.0 | 10.0 | 0.00 | 0.00 | 0.00 | 55 | 1005.2 |
| 20260507110056 | 63 | 102 | 1.0 | 5.0 | 0.00 | 0.00 | 0.00 | 57 | 1005.2 |
| 20260507104555 | 63 | 187 | 0.0 | 5.0 | 0.00 | 0.00 | 0.00 | 55 | 1005.2 |
| 20260507103054 | 63 | 223 | 3.0 | 6.0 | 0.00 | 0.00 | 0.00 | 55 | 1005.1 |
| 20260507101554 | 63 | 190 | 2.0 | 5.0 | 0.00 | 0.00 | 0.00 | 58 | 1005.2 |
| 20260507100024 | 60 | 196 | 0.0 | 2.0 | 0.00 | 0.00 | 0.00 | 64 | 1005.3 |
| 20260507094514 | 58 | 175 | 0.0 | 7.0 | 0.00 | 0.00 | 0.00 | 67 | 1005.5 |
| 20260507093011 | 59 | 107 | 3.0 | 7.0 | 0.00 | 0.00 | 0.00 | 61 | 1005.6 |
| 20260507091510 | 59 | 330 | 0.0 | 0.0 | 0.00 | 0.00 | 0.00 | 61 | 1005.5 |
| 20260507090009 | 59 | 330 | 0.0 | 0.0 | 0.00 | 0.00 | 0.00 | 62 | 1005.3 |
| 20260507084509 | 59 | 330 | 0.0 | 3.0 | 0.00 | 0.00 | 0.00 | 61 | 1005.2 |
| 20260507083006 | 59 | 329 | 0.0 | 3.0 | 0.00 | 0.00 | 0.00 | 62 | 1005.2 |
| 20260507081502 | 58 | 329 | 1.0 | 5.0 | 0.00 | 0.00 | 0.00 | 63 | 1005.1 |
| 20260507080002 | 57 | 329 | 0.0 | 4.0 | 0.00 | 0.00 | 0.00 | 64 | 1005.2 |
| 20260507074500 | 57 | 329 | 1.0 | 3.0 | 0.00 | 0.00 | 0.00 | 65 | 1005.2 |
| 20260507073058 | 56 | 329 | 2.0 | 4.0 | 0.00 | 0.00 | 0.00 | 65 | 1005.3 |
| 20260507071611 | 56 | 77 | 0.0 | 0.0 | 0.00 | 0.00 | 0.00 | 66 | 1005.2 |
| 20260507070057 | 55 | 77 | 0.0 | 0.0 | 0.00 | 0.00 | 0.00 | 70 | 1005.1 |
| 20260507064556 | 54 | 77 | 0.0 | 3.0 | 0.00 | 0.00 | 0.00 | 70 | 1004.9 |
| 20260507063025 | 53 | 101 | 2.0 | 8.0 | 0.00 | 0.00 | 0.00 | 71 | 1004.8 |
| 20260507061524 | 52 | 130 | 5.0 | 9.0 | 0.00 | 0.00 | 0.00 | 73 | 1004.6 |
| 20260507060019 | 52 | 89 | 2.0 | 5.0 | 0.00 | 0.00 | 0.00 | 73 | 1004.6 |
| 20260507054519 | 51 | 96 | 2.0 | 5.0 | 0.00 | 0.00 | 0.00 | 74 | 1004.6 |
| 20260507053017 | 51 | 105 | 2.0 | 7.0 | 0.00 | 0.00 | 0.00 | 74 | 1004.3 |
| 20260507051527 | 51 | 115 | 1.0 | 4.0 | 0.00 | 0.00 | 0.00 | 74 | 1004.2 |
| 20260507050014 | 51 | 119 | 2.0 | 4.0 | 0.00 | 0.00 | 0.00 | 74 | 1004.1 |
| 20260507044513 | 51 | 113 | 0.0 | 4.0 | 0.00 | 0.00 | 0.00 | 74 | 1004.0 |
| 20260507043012 | 51 | 81 | 0.0 | 4.0 | 0.00 | 0.00 | 0.00 | 73 | 1004.0 |
| 20260507041509 | 51 | 95 | 2.0 | 6.0 | 0.00 | 0.00 | 0.00 | 72 | 1004.1 |
| 20260507040039 | 52 | 108 | 0.0 | 6.0 | 0.00 | 0.00 | 0.00 | 72 | 1004.2 |
| 20260507034540 | 52 | 105 | 1.0 | 7.0 | 0.00 | 0.00 | 0.00 | 71 | 1004.1 |
| 20260507033013 | 52 | 100 | 1.0 | 5.0 | 0.00 | 0.00 | 0.00 | 70 | 1004.1 |
| 20260507031503 | 53 | 96 | 0.0 | 5.0 | 0.00 | 0.00 | 0.00 | 69 | 1004.1 |
| 20260507030101 | 53 | 96 | 0.0 | 3.0 | 0.00 | 0.00 | 0.00 | 69 | 1004.1 |
| 20260507024605 | 53 | 87 | 1.0 | 3.0 | 0.00 | 0.00 | 0.00 | 68 | 1003.9 |
| 20260507023057 | 54 | 86 | 0.0 | 2.0 | 0.00 | 0.00 | 0.00 | 67 | 1003.9 |
| 20260507021555 | 54 | 86 | 1.0 | 6.0 | 0.00 | 0.00 | 0.00 | 66 | 1003.8 |
| 20260507020050 | 55 | 106 | 2.0 | 5.0 | 0.00 | 0.00 | 0.00 | 65 | 1003.8 |
| 20260507014554 | 56 | 346 | 0.0 | 2.0 | 0.00 | 0.00 | 0.00 | 62 | 1004.1 |
| 20260507013048 | 57 | 346 | 0.0 | 0.0 | 0.00 | 0.00 | 0.00 | 59 | 1004.1 |
| 20260507011542 | 57 | 346 | 0.0 | 2.0 | 0.00 | 0.00 | 0.00 | 59 | 1004.2 |
| 20260507010037 | 58 | 346 | 0.0 | 1.0 | 0.00 | 0.00 | 0.00 | 58 | 1004.3 |
| 20260507004539 | 58 | 346 | 0.0 | 4.0 | 0.00 | 0.00 | 0.00 | 58 | 1004.3 |
| 20260507003035 | 58 | 346 | 0.0 | 2.0 | 0.00 | 0.00 | 0.00 | 57 | 1004.4 |
| 20260507001540 | 58 | 346 | 1.0 | 4.0 | 0.00 | 0.00 | 0.00 | 57 | 1004.4 |
| 20260507000032 | 59 | 37 | 1.0 | 5.0 | 0.00 | 0.00 | 0.00 | 57 | 1004.7 |
| 20260506234531 | 59 | 346 | 0.0 | 4.0 | 0.00 | 0.00 | 0.00 | 58 | 1004.7 |
| 20260506233030 | 59 | 321 | 0.0 | 2.0 | 0.00 | 0.00 | 0.00 | 58 | 1004.6 |
| 20260506231530 | 59 | 38 | 0.0 | 4.0 | 0.00 | 0.00 | 0.00 | 58 | 1004.7 |
| 20260506230028 | 59 | 143 | 0.0 | 0.0 | 0.00 | 0.00 | 0.00 | 59 | 1004.6 |
| 20260506224528 | 60 | 143 | 0.0 | 2.0 | 0.00 | 0.00 | 0.00 | 57 | 1004.6 |
| 20260506223027 | 60 | 152 | 0.0 | 4.0 | 0.00 | 0.00 | 0.00 | 57 | 1004.7 |
| 20260506221526 | 60 | 162 | 2.0 | 7.0 | 0.00 | 0.00 | 0.00 | 56 | 1004.7 |
| 20260506220034 | 60 | 200 | 1.0 | 7.0 | 0.00 | 0.00 | 0.00 | 56 | 1004.8 |
| 20260506214527 | 60 | 208 | 1.0 | 5.0 | 0.00 | 0.00 | 0.00 | 58 | 1004.8 |
| 20260506213028 | 61 | 194 | 1.0 | 5.0 | 0.00 | 0.00 | 0.00 | 55 | 1004.7 |
| 20260506211522 | 61 | 190 | 0.0 | 5.0 | 0.00 | 0.00 | 0.00 | 48 | 1004.6 |
| 20260506210023 | 62 | 184 | 1.0 | 10.0 | 0.00 | 0.00 | 0.00 | 44 | 1004.5 |
| 20260506204553 | 62 | 198 | 1.0 | 4.0 | 0.00 | 0.00 | 0.00 | 44 | 1004.1 |
| 20260506203052 | 62 | 136 | 0.0 | 0.0 | 0.00 | 0.00 | 0.00 | 45 | 1003.9 |
| 20260506201521 | 62 | 101 | 0.0 | 5.0 | 0.00 | 0.00 | 0.00 | 45 | 1003.7 |
| 20260506200022 | 63 | 181 | 0.0 | 5.0 | 0.00 | 0.00 | 0.00 | 46 | 1003.6 |
| 20260506194517 | 64 | 113 | 2.0 | 7.0 | 0.00 | 0.00 | 0.00 | 47 | 1003.2 |
| 20260506193016 | 65 | 221 | 2.0 | 7.0 | 0.00 | 0.00 | 0.00 | 47 | 1003.0 |
| 20260506191516 | 65 | 181 | 1.0 | 6.0 | 0.00 | 0.00 | 0.00 | 46 | 1002.8 |
| 20260506190023 | 66 | 222 | 3.0 | 6.0 | 0.00 | 0.00 | 0.00 | 45 | 1002.8 |
| 20260506184549 | 66 | 196 | 2.0 | 6.0 | 0.00 | 0.00 | 0.00 | 45 | 1002.7 |
| 20260506183051 | 67 | 96 | 3.0 | 8.0 | 0.00 | 0.00 | 0.00 | 45 | 1002.7 |
| 20260506181553 | 67 | 159 | 1.0 | 9.0 | 0.00 | 0.00 | 0.00 | 42 | 1002.8 |
| 20260506180100 | 68 | 152 | 2.0 | 7.0 | 0.00 | 0.00 | 0.00 | 41 | 1002.7 |
| 20260506174540 | 68 | 190 | 0.0 | 8.0 | 0.00 | 0.00 | 0.00 | 41 | 1002.7 |
| 20260506173045 | 69 | 242 | 4.0 | 7.0 | 0.00 | 0.00 | 0.00 | 40 | 1002.6 |
| 20260506171537 | 69 | 244 | 1.0 | 11.0 | 0.00 | 0.00 | 0.00 | 40 | 1002.6 |
| 20260506170037 | 71 | 221 | 3.0 | 9.0 | 0.00 | 0.00 | 0.00 | 38 | 1002.6 |
| 20260506164536 | 72 | 194 | 1.0 | 9.0 | 0.00 | 0.00 | 0.00 | 37 | 1002.5 |
| 20260506163038 | 72 | 173 | 2.0 | 8.0 | 0.00 | 0.00 | 0.00 | 36 | 1002.5 |
| 20260506161536 | 72 | 125 | 2.0 | 8.0 | 0.00 | 0.00 | 0.00 | 36 | 1002.5 |
| 20260506160036 | 72 | 240 | 0.0 | 8.0 | 0.00 | 0.00 | 0.00 | 37 | 1002.6 |
| 20260506154531 | 72 | 171 | 3.0 | 9.0 | 0.00 | 0.00 | 0.00 | 35 | 1002.7 |
| 20260506153031 | 72 | 182 | 5.0 | 11.0 | 0.00 | 0.00 | 0.00 | 36 | 1002.7 |
| 20260506151600 | 73 | 192 | 4.0 | 10.0 | 0.00 | 0.00 | 0.00 | 35 | 1002.9 |